www.pogodaiklimat.ru

Погода и климат >> Архив погоды >> Корея >> Куми


ПОГОДА в Куми

  • Прогноз погоды в Куми
  • Монитор погоды в Куми

АРХИВ ПОГОДЫ в Куми

Время (UTC), дата Ветер
(напр.,м/с)
 
Видим.   Явления Облачность Т
(С)
Тd
(С)
f
(%)
Тe
(С)
Тes
(С)
Комфортность P
(гПа)
Po
(гПа)
Тmin
(С)
Tmax
(С)
R
(мм)
R24
(мм)
S
(см)
15 15.09 штиль 0 20 км 9/3 600 м
[]
+21.3 +19.7 91 +26 +26 душно 1011.5 1005.8
18 15.09 штиль 0 20 км 5/5 1000 м
[]
+19.8 +19.6 99 +23 +23 комфорт 1010.7 1005.0
21 15.09 З 1 20 км 8/0
[]
+18.0 +17.8 99 +19 +19 1011.0 1005.3
00 16.09 20 км 8/8 1500 м
[]
+21.5 +19.0 86 1011.8 1006.1 +17.8
03 16.09 СВ 1 18 км 4/1 1500 м
[]
+26.2 +15.8 53 +29 +42 жарко 1010.9 1005.3
06 16.09 В 2 20 км 3/0
[]
+27.7 +17.5 54 +32 +40 очень
душно
1009.5 1004.0
09 16.09 З 1 20 км ясно +24.5 +18.6 70 +29 +29 душно 1010.1 1004.5
12 16.09 штиль 0 20 км 3/0
[]
+20.4 +20.0 98 +24 +24 комфорт 1012.3 1006.6 +28.3
15 16.09 штиль 0 20 км 6/0
[]
+18.2 +17.8 98 +19 +19 1013.7 1008.0
18 16.09 З 1 20 км ясно +15.6 +15.4 99 +16 +16 1014.3 1008.5
21 16.09 З 1 20 км 5/0
[]
+14.8 +14.6 99 +15 +15 1015.9 1010.1
00 17.09 С 1 20 км ясно +20.5 +17.6 83 +25 +32 комфорт 1016.9 1011.2 +14.7
03 17.09 С 1 20 км 3/1 1000 м
[]
+25.3 +17.4 62 +29 +43 душно 1015.9 1010.3
06 17.09 С 1 20 км ясно +28.2 +16.1 48 +31 +42 душно 1013.6 1008.0
09 17.09 ЮВ 1 20 км ясно +24.8 +16.2 59 +28 +28 жарко 1014.0 1008.4
12 17.09 З 1 20 км 8/0
[]
+19.3 +18.6 96 +23 +23 комфорт 1015.7 1010.0 +28.3
15 17.09 З 1 20 км 9//
[]
+18.3 +17.9 98 +20 +20 1015.8 1010.0
18 17.09 З 1 20 км ?/? +17.8 +17.6 99 +19 +19 1015.5 1009.7
21 17.09 штиль 0 20 км 10/10
[]
+17.6 +17.4 99 +18 +18 1015.4 1009.6
00 18.09 С 1 20 км ясно +21.7 +18.8 84 +27 +33 душно 1016.2 1010.5 +16.9
03 18.09 СЗ 2 20 км 3/0
[]
+27.0 +14.3 46 +29 +42 жарко 1015.5 1009.9
06 18.09 З 2 20 км ясно +28.9 +12.3 36 +30 +39 жарко 1013.4 1007.9
09 18.09 З 1 20 км ясно +25.1 +11.9 44 +27 +27 жарко 1014.4 1008.8
12 18.09 СЗ 1 20 км ясно +21.1 +11.4 54 +23 +23 комфорт 1016.8 1011.1 +29.3
15 18.09 штиль 0 20 км ясно +16.9 +10.9 68 +17 +17 1018.1 1012.3
18 18.09 С 1 20 км 8/8 1000 м
[]
+16.1 +13.5 85 +17 +17 1018.6 1012.8
21 18.09 20 км н/о +15.3 +13.4 88 +16 +16 1020.0 1014.1
00 19.09 20 км 3/0
[]
+19.7 +15.3 76 1020.3 1014.6 +14.9
03 19.09 В 1 19 км 5/1
[]
+24.4 +15.0 56 +27 +39 жарко 1018.7 1013.1
06 19.09 С 1 20 км 6/0
[]
+25.4 +13.5 48 +28 +35 жарко 1017.0 1011.4
09 19.09 ЮЗ 1 19 км 5/0
[]
+21.3 +15.3 69 +24 +25 комфорт 1016.7 1011.0
12 19.09 З 1 20 км 8/0
[]
+18.4 +16.5 89 +20 +20 1017.4 1011.6 +26.0
15 19.09 20 км н/о +17.1 +16.6 97 +18 +18 1017.1 1011.3
18 19.09 20 км ?/? +15.9 +15.7 99 1017.2 1011.4
21 19.09 СЗ 1 20 км 10/10
[]
+15.8 +15.6 99 +16 +16 1017.4 1011.6
00 20.09 штиль 0 20 км 9/0
[]
+18.0 +17.5 97 +18 +19 1018.4 1012.6 +15.7
03 20.09 С 1 20 км 10//
[]
+20.9 +16.5 76 +26 +34 душно 1018.0 1012.3
06 20.09 С 1 20 км ?/? +22.1 +16.8 72 +26 +26 душно 1017.5 1011.8
09 20.09 СВ 1 20 км 8/0
[]
+21.2 +16.7 75 +25 +25 комфорт 1018.1 1012.4
12 20.09 штиль 0 20 км 9/0
[]
+19.5 +18.3 93 +22 +22 комфорт 1018.9 1013.2 +22.7
15 20.09 штиль 0 20 км 9/1
[]
+18.0 +17.6 98 +18 +18 1019.5 1013.7
18 20.09 З 1 20 км 9/0
[]
+17.0 +16.8 99 +18 +18 1018.9 1013.1
21 20.09 штиль 0 20 км 10/9
[]
+17.1 +16.9 99 +17 +17 1019.0 1013.2
00 21.09 11 км ?/? +18.2 +18.0 99 1020.1 1014.3 +16.7 0.1
03 21.09 штиль 0 12 км 10/0
[]
+19.8 +19.6 99 +23 +32 комфорт 1019.3 1013.6
06 21.09 СВ 2 4500 м ?/? +17.3 +17.1 99 +18 +19 1018.5 1012.7 10
09 21.09 штиль 0 6000 м 10/3 300 м
[]
+16.7 +16.5 99 +17 +17 1019.9 1014.1
12 21.09 штиль 0 5000 м ?/? +16.2 +16.0 99 +16 +16 1019.8 1014.0 +20.0 37
15 21.09 СВ 1 2700 м 10/6 600 м
[]
+15.8 +15.6 99 +16 +16 1019.4 1013.5
18 21.09 ЮЗ 1 8000 м ?/? +15.9 +15.7 99 +17 +17 1017.0 1011.2 41
21 21.09 штиль 0 5000 м 10/6 300 м
[]
+16.3 +16.1 99 +16 +16 1016.7 1010.9
00 22.09 В 2 2800 м н/о +17.1 +16.9 99 +17 +17 1014.6 1008.8 +15.6 74
03 22.09 СВ 1 6000 м 10/6 600 м
[]
+17.7 +17.5 99 +19 +22 1012.3 1006.5
06 22.09 СВ 2 10 км ?/? +17.7 +17.5 99 +18 +19 1010.3 1004.6 25
09 22.09 СВ 1 9000 м 10/6 600 м
[]
+17.2 +17.0 99 +18 +18 1009.0 1003.2
12 22.09 СВ 3 20 км ?/? +17.4 +17.2 99 +17 +17 1006.7 1001.0 +18.1 42

 

Местоположение метеостанции Куми (Корея): широта 36.12 долгота 128.32 высота над уровнем моря 47 м.

В архиве по умолчанию представлена погода в Куми за последнюю неделю. Архивные данные за месяц целиком и за предыдущие месяцы, начиная с января 2011 года, Вы можете получить, выбрав интересующий диапазон дат из раскрывающегося списка и нажав кнопку "Ввод!".


*Определитесь, кто Вы:
робот инопланетянин человек

Внимание! Время в таблицах - всемирное. Для получения местного времени необходимо прибавить поправку, которая равна 9 ч.

Смотрите также архив погоды в соседних городах и на ближайших метеорологических станциях:

Погода на Чупунджнеоне (Корея) (31 км)
Погода в Санджу (Корея) (35 км)
Погода в Тэгу (Корея) (37 км)
Погода в Андоне (Корея) (61 км)
Погода в Чинхэгу (Корея) (63 км)
Погода в Тэджоне (Корея) (90 км)
Погода в Пхохане (Корея) (96 км)
Погода в Чхонджу (Корея) (96 км)
Погода в Чинджу (Корея) (104 км)
Погода в Масане (Корея) (107 км)

Пояснения к столбцам:

Ветер - указаны скорость ветра в м/с - средняя за 10 мин, порывы в срок и между сроками (в фигурных скобках) и направление, откуда дует ветер: С - северный, СВ - северо-восточный, В - восточный, ЮВ - юго-восточный, Ю - южный, ЮЗ - юго-западный, З - западный, СЗ - северо-западный.
Видимость - горизонтальная дальность видимости в метрах или километрах. При видимости от 1 до 10 км при отсутствии осадков обычно наблюдается дымка, при ухудшении видимости до 1 км и менее - туман. В сухую погоду видимость может ухудшаться дымом, пылью или мглою.
Явления - указаны атмосферные явления, наблюдавшиеся в срок или в последний час перед сроком; фигурными скобками обозначены явления, наблюдавшиеся между сроками (за 1-3 часа до срока); квадратными скобками обозначены град или гололедные отложения с указанием их диаметра в мм.
Облачность - указаны через наклонную черту общая и нижняя облачность в баллах и высота нижней границы облаков в метрах; квадратными скобками обозначены формы облаков: Ci - перистые, Cs - перисто-слоистые, Cc - перисто-кучевые, Ac - высококучевые, As - высокослоистые, Sc - слоисто-кучевые, Ns - слоисто-дождевые, Cu - кучевые, Cb - кучево-дождевые. Подробнее классификацию облаков см. в Атласе облаков (PDF).
T - Температура воздуха - температура, измеренная на высоте 2 м над землей.
Td - Температура точки росы - температура, при понижении до которой содержащийся в воздухе водяной пар достигнет насыщения.
f - Относительная влажность воздуха - влажноcть воздуха, измеренная на высоте 2 м над землей.
Te - Эффективная температура - температура, которую ощущает одетый по сезону человек в тени. Характеристика душности погоды. При расчете учитывается влияние влажности воздуха и скорости ветра на теплоощущения человека.
Tes - Эффективная температура на солнце - температура, которую ощущает человек, с поправкой на солнечный нагрев. Характеристика знойности погоды. Зависит от высоты солнца над горизонтом, облачности и скорости ветра. Ночью, в пасмурную погоду, а также при ветре 12 м/с и более поправка равна нулю.
P - Атмосферное давление - приведенное к уровню моря атмосферное давление.
Po - Атмосферное давление - измеренное на уровне метеостанции атмосферное давление.
Tmin - Минимальная температура - минимум температуры воздуха на высоте 2 м над землей.
Tmax - Максимальная температура - максимум температуры воздуха на высоте 2 м над землей.
R - Количество осадков - Количество выпавших осадков за период времени, мм. При наведении курсора мыши на число - период времени, за который выпало указанное количество осадков.
R24 - Количество осадков - Количество выпавших осадков за 24 часа, мм.
S - Снежный покров - Высота снежного покрова, см. При наведении курсора мыши на число - состояние снежного покрова и степень покрытия местности в баллах.